Location: Napier
(39.4830°S, 176.9170°E)
Time: 13:18:43
(UTC+13:00)

Daily predictions for brighter satellites

Satellite Brightness Start Highest point End
(mag) Time Altitude Azimuth Time Altitude Azimuth Time Altitude Azimuth
HJ-1C 3.4 21:01:33 10° SSE 21:04:59 65° E 21:08:22 10° N
Cosmos 1869 3.8 21:01:13 10° NNE 21:05:00 40° E 21:08:49 10° SSE
Cosmos 1271 Rocket 2.8 21:01:01 10° S 21:05:05 72° E 21:09:07 10° NNE
Cosmos 1655 Rocket 4.3 20:59:30 10° N 21:05:52 80° W 21:12:15 10° S
Cosmos 2360 Rocket 3.9 21:04:47 10° NE 21:07:24 13° E 21:10:01 10° ESE
Cosmos 1666 Rocket 3.7 21:03:52 10° S 21:08:24 62° E 21:12:49 10° NNE
Tiangong 2 2.8 21:07:03 10° W 21:09:42 24° NNW 21:12:21 10° NNE
Cosmos 1980 Rocket 2.7 21:04:51 10° NNW 21:10:32 68° WSW 21:16:16 10° SSE
Lacrosse 5 2.0 21:11:45 10° SW 21:16:57 77° SE 21:22:00 10° NE
Cosmos 1805 Rocket 4.3 21:13:26 10° SSW 21:17:46 55° W 21:22:01 10° N
Cosmos 2228 Rocket 4.1 21:14:13 10° NNE 21:17:58 27° E 21:21:44 10° SSE
MOS 1 4.4 21:13:35 10° SSE 21:19:24 90° WSW 21:25:08 10° NNW
DELTA 2 R/B(2) 3.4 21:17:41 10° WNW 21:20:27 54° NNE 21:21:56 12° E
Cosmos 2322 Rocket 2.6 21:15:20 10° N 21:20:35 41° ENE 21:25:55 10° SE
Cosmos 1741 Rocket 4.4 21:17:05 10° NNW 21:22:24 74° WSW 21:27:49 10° SSE
ADEOS Rocket 3.6 21:19:02 10° NE 21:23:59 33° ESE 21:28:54 10° S
Cosmos 1242 Rocket 4.4 21:22:14 10° SSE 21:24:44 17° ESE 21:26:48 12° ENE
CZ-2D R/B 4.1 21:24:30 10° S 21:28:24 57° WSW 21:32:15 10° NNW
USA 186 1.5 21:26:12 10° SSE 21:29:03 52° E 21:31:40 10° N
Cosmos 1515 Rocket 3.9 21:25:57 10° NNE 21:30:16 47° E 21:34:38 10° SSE
Cosmos 1939 Rocket 3.1 21:29:46 10° S 21:34:01 81° WSW 21:38:11 10° NNW
NOAA 11 4.2 21:31:57 10° SSE 21:37:31 69° ENE 21:43:01 10° N
ARGOS 4.3 21:34:37 10° SE 21:38:58 24° E 21:42:01 15° NE
Meteor 2-10 Rocket 4.5 21:35:15 10° NNW 21:40:13 51° WSW 21:45:26 10° S
Cosmos 2227 4.2 21:34:58 10° SSW 21:40:44 89° WNW 21:46:05 12° NNE
Resurs 01 Rocket 2.4 21:38:40 10° SSE 21:42:41 31° E 21:45:44 15° NNE
Cosmos 1633 4.3 21:41:31 10° SSE 21:43:59 17° ESE 21:45:03 15° E
Cosmos 2263 Rocket 2.4 21:39:18 10° SSW 21:44:54 57° ESE 21:49:12 17° NE
Aureole 3 Rocket 3.0 21:44:56 10° SSW 21:48:28 73° W 21:53:02 10° N
CZ-2C R/B 2.7 21:48:36 14° NNE 21:53:14 65° ESE 21:58:36 10° S
Cosmos 1151 Rocket 3.2 21:50:55 10° NNW 21:55:12 74° W 21:59:35 10° S
Resurs 1-3 3.8 21:51:29 10° SSE 21:55:51 53° E 21:59:43 13° N
Cosmos 2208 Rocket 4.3 21:59:28 10° SSW 22:04:42 67° WNW 22:09:00 15° N
Cosmos 2315 Rocket 4.2 21:59:32 10° S 22:05:56 78° W 22:12:11 10° N
CZ-4C R/B 4.2 22:05:38 10° S 22:09:06 16° SSE 22:12:20 10° ESE
H-2A R/B 3.6 22:08:39 10° NNW 22:12:16 28° NNE 22:24:53 10° E
Cosmos 1356 4.0 22:12:25 36° ENE 22:12:49 37° E 22:16:07 10° SSE
Cosmos 540 Rocket 3.8 22:11:41 10° S 22:16:49 52° ESE 22:19:09 30° NE
ATLAS 3B R/B 3.8 22:18:32 23° ENE 22:19:07 23° ENE 22:24:30 10° ESE
CZ-2C R/B 4.5 22:19:30 10° SE 22:22:17 18° E 22:22:17 18° E
USA 238 DEB 4.1 22:16:17 10° N 22:23:13 45° ENE 22:30:05 10° SE
USA 238 4.1 22:16:24 10° N 22:23:19 45° ENE 22:30:09 10° SE
BREEZE-M DEB (TANK) 3.1 22:24:32 10° W 22:28:19 38° SSW 22:29:45 17° SE
Cosmos 1862 3.9 22:24:53 10° SSW 22:28:52 53° W 22:31:07 23° NNW
Cosmos 2237 4.3 22:25:19 19° N 22:29:15 55° ENE 22:34:51 10° SSE
Cosmos 1763 Rocket 4.3 22:26:05 10° SSW 22:31:07 47° WNW 22:34:28 20° NNW
Atlas Centaur 2 3.4 22:24:49 10° WNW 22:32:48 45° N 22:36:40 29° NE
Cosmos 1869 Rocket 3.6 22:31:06 10° S 22:35:30 60° E 22:36:30 46° NE
ERBS 3.5 22:33:14 10° SSW 22:36:27 32° SE 22:37:00 30° ESE
Nimbus 7 Rocket 4.4 22:38:53 33° NNE 22:41:42 81° ESE 22:47:46 10° SSW
Cosmos 1486 Rocket 4.1 22:37:07 10° NNW 22:42:20 77° WSW 22:47:40 10° SSE
H-2A R/B 1.9 22:37:49 10° SSE 22:42:55 88° ENE 22:45:39 28° NNW
SL-08 R/B 4.5 22:39:25 18° N 22:44:11 82° W 22:50:27 10° S
ERS-1 Rocket 4.0 22:39:51 10° SE 22:44:02 29° E 22:44:02 29° E
SL-16 R/B 3.7 22:40:07 10° NW 22:45:20 36° WSW 22:50:36 10° S
Mayak -0.1 22:46:27 30° ESE 22:46:35 30° ESE 22:50:17 10° S
Cosmos 2333 4.5 22:49:27 42° NE 22:50:37 48° ENE 22:56:12 10° SE
Cosmos 2360 Rocket 2.3 22:44:56 10° NNW 22:50:37 78° WSW 22:56:23 10° SSE
CZ-4B DEB 4.5 22:52:33 10° S 22:55:56 79° SSW 22:55:56 79° SSW
Cosmos 1707 Rocket 3.4 22:55:32 64° NNE 22:56:10 81° E 23:00:35 10° S
Cosmos 1733 Rocket 4.2 22:54:02 10° SSE 22:57:44 30° ESE 22:57:44 30° ESE
Meteor 1-26 Rocket 4.2 22:56:00 37° N 22:58:28 82° E 23:04:16 10° S
Lacrosse 5 4.0 22:56:12 10° W 22:59:19 16° WNW 23:01:12 14° NW
Cosmos 1242 Rocket 4.3 22:56:27 10° SSW 22:59:41 27° W 23:00:53 23° NW
NOSS 2-1 (E) 4.4 22:52:01 10° SW 22:59:42 89° ESE 23:01:31 48° NNE
Cosmos 1933 4.4 22:58:17 26° NW 23:00:13 44° W 23:04:14 10° S
Helios 1B rocket 2.3 23:00:45 72° N 23:01:09 84° WNW 23:05:20 10° SSW
Cosmos 1844 Rocket 3.1 22:55:49 10° SSW 23:01:21 51° ESE 23:02:38 43° ENE
COSMOS 2428 2.9 23:03:03 47° ENE 23:03:24 48° ENE 23:08:56 10° SE
Cosmos 2322 Rocket 4.2 22:59:53 10° WNW 23:04:44 28° WSW 23:09:40 10° S
NOSS 3-2 (C) 4.3 23:03:17 37° NNE 23:05:41 46° ENE 23:13:00 10° SE
Cosmos 1745 Rocket 4.3 23:05:15 24° NNW 23:09:16 69° W 23:15:39 10° S
ADEOS Rocket 4.3 23:05:50 15° NNW 23:09:32 30° W 23:14:23 10° SW
Cosmos 968 Rocket 3.4 23:08:48 61° NNE 23:09:33 72° ENE 23:14:49 10° SSE
SPOT 1/Viking Rocket 4.1 23:04:47 10° SSE 23:09:30 41° E 23:09:30 41° E
Cosmos 1709 Rocket 3.9 23:15:10 51° NNE 23:16:45 71° E 23:23:02 10° SSE
Terra 3.4 23:14:11 10° SE 23:16:50 23° ESE 23:16:50 23° ESE
Cosmos 1633 4.4 23:15:49 10° SW 23:18:50 25° W 23:19:15 24° WNW
Resurs 01 Rocket 3.9 23:15:26 10° SSW 23:18:58 23° WSW 23:22:28 10° WNW
ARGOS 4.3 23:14:15 10° S 23:19:20 42° WSW 23:23:31 14° NW
Cosmos 2322 4.0 23:18:11 23° NW 23:21:49 65° WSW 23:27:32 10° SSE
Cosmos 1862 Rocket 4.1 23:23:39 49° SE 23:23:39 49° SE 23:27:15 10° SSE
MetOp-B 4.4 23:18:40 10° S 23:24:04 68° WSW 23:25:58 40° NW
Meteor 1-25 Rocket 4.3 23:18:41 10° SSW 23:24:35 76° W 23:25:57 54° NNW
Cosmos 1606 3.5 23:25:39 49° W 23:25:40 49° W 23:29:34 10° S
CENTAUR R/B 3.5 23:28:51 37° ENE 23:28:51 37° ENE 23:34:50 10° SE
Cosmos 2263 Rocket 4.2 23:24:26 10° WSW 23:28:18 19° W 23:30:54 14° NW
Meteor 2-6 Rocket 4.2 23:33:41 61° E 23:33:41 61° E 23:38:55 10° SSE
Cosmos 2333 Rocket 2.1 23:35:00 70° ENE 23:35:08 70° ENE 23:40:56 10° SSE
Cosmos 2219 Rocket 2.0 23:36:23 75° NNE 23:36:42 78° ENE 23:42:26 10° SSE
Cosmos 2278 Rocket 3.4 23:32:43 10° S 23:37:42 30° ESE 23:38:32 29° ESE
Cosmos 2181 Rocket 3.9 23:32:47 10° S 23:39:03 71° E 23:39:48 64° NE
IGS 5A 4.4 23:38:21 10° SSE 23:41:15 42° SSE 23:41:15 42° SSE
SeaSat 1 2.4 23:38:55 10° SSE 23:43:56 83° WSW 23:44:00 83° W
Meteor 2-21 4.3 23:43:31 69° NE 23:43:56 72° E 23:50:02 10° SSE
Meteor 1-11 Rocket 4.4 23:38:20 10° S 23:44:03 42° ESE 23:44:18 42° E
Cosmos 2237 Rocket 3.1 23:51:01 35° ESE 23:51:01 35° ESE 23:54:55 10° SE
Cosmos 1340 Rocket 3.9 23:50:56 42° SSW 23:50:56 42° SSW 23:53:46 10° S
Cosmos 1818 4.4 23:47:57 21° WNW 23:51:18 46° SW 23:56:30 10° SSE
